Home   Weather   Naugarh   Past weeks

Flag for India Past Weather in Naugarh, Uttar Pradesh, India — Yesterday and Last 2 Weeks

Now
90 °F

Scattered clouds.


Feels Like: 89 °F
Forecast: 76 / 97 °F
Wind: 3 mph from Southeast

Location: Lucknow / Amausi

Current Time: Apr 30, 2017 at 8:42:15 am

Latest Report: Apr 30, 2017 at 8:00 am


Visibility: 2 mi

Pressure: 29.74 "Hg

Humidity: 36%

Dew Point: 59 °F

Location of NaugarhLocation

Past Weather in Naugarh — Graph

°F

Naugarh Temperature Yesterday

Maximum temperature yesterday: 109 °F (at 1:00 pm)
Minimum temperature yesterday: 75 °F (at 5:30 am)
Average temperature yesterday: 96 °F

High & Low Weather Summary for the Past Weeks

 TemperatureHumidityPressure
High109 °F (Apr 15, 4:00 pm)89% (Apr 20, 5:00 am)29.77 "Hg (Apr 20, 5:00 am)
Low73 °F (Apr 16, 5:30 am)9% (Apr 25, 12:30 pm)29.47 "Hg (Apr 20, 4:00 pm)
Average92 °F43%29.63 "Hg
* Reported Apr 15 7:30 am — Apr 30 7:30 am, Naugarh, Weather by CustomWeather, © 2017

Note: Actual official high and low records may vary slightly from our data, if they occured in-between our weather recording intervals... More about our weather records

Advertising

Naugarh Weather History for the Previous 24 Hours

Scroll right to see more
 ConditionsComfort  
Time TempWeatherWind HumidityBarometerVisibility
7:30 am
Sun, Apr 30
88 °FHaze.2 mph35%29.71 "Hg2 mi
7:00 am86 °FHaze.2 mph35%29.71 "Hg2 mi
6:30 am84 °FHaze.2 mph37%29.71 "Hg1 mi
6:00 am84 °FScattered clouds.2 mph37%29.71 "Hg1 mi
5:30 am84 °FPartly cloudy.3 mph37%29.71 "Hg1 mi
5:00 am84 °FPartly cloudy.2 mph37%29.71 "Hg1 mi
4:00 am84 °FPartly cloudy.3 mph37%29.71 "Hg1 mi
3:00 am88 °FThunderstorms. Partly cloudy.7 mph31%29.68 "Hg1 mi
2:00 am88 °FPartly cloudy.5 mph31%29.71 "Hg1 mi
1:00 am90 °FPassing clouds.3 mph27%29.68 "Hg1 mi
12:00 am91 °FPassing clouds.7 mph26%29.71 "Hg1 mi
10:00 pm
Sat, Apr 29
93 °FPassing clouds.8 mph26%29.71 "Hg1 mi
9:00 pm95 °FPassing clouds.9 mph25%29.68 "Hg1 mi
8:30 pm95 °FHaze.No wind26%29.65 "Hg1 mi
8:00 pm95 °FClear.No wind25%29.65 "Hg1 mi
7:30 pm97 °FHaze.No wind22%29.65 "Hg1 mi
7:00 pm100 °FHaze.2 mph21%29.62 "Hg2 mi
6:00 pm106 °FHaze.2 mph17%29.62 "Hg2 mi
5:30 pm108 °FDuststorm.3 mph14%29.62 "Hg2 mi
5:00 pm109 °FDuststorm.3 mph13%29.62 "Hg2 mi
4:30 pm108 °FDuststorm.2 mph15%29.62 "Hg2 mi
4:00 pm109 °FDuststorm.3 mph15%29.62 "Hg2 mi
3:30 pm109 °FDuststorm.2 mph14%29.65 "Hg2 mi
3:00 pm109 °FDuststorm.3 mph15%29.65 "Hg2 mi
2:30 pm108 °FDuststorm.3 mph16%29.68 "Hg2 mi
2:00 pm108 °FDuststorm.3 mph18%29.68 "Hg2 mi
1:00 pm109 °FDuststorm.6 mph17%29.71 "Hg2 mi
12:30 pm108 °FDuststorm.3 mph17%29.71 "Hg2 mi
12:00 pm106 °FDuststorm.3 mph19%29.74 "Hg2 mi
11:30 am106 °FDuststorm.2 mph19%29.74 "Hg2 mi
11:00 am104 °FDuststorm.2 mph20%29.74 "Hg2 mi
10:30 am102 °FDuststorm.2 mph18%29.74 "Hg2 mi
10:00 am100 °FDuststorm.2 mph24%29.74 "Hg2 mi
9:30 am97 °FDuststorm.2 mph28%29.74 "Hg2 mi
9:00 am95 °FDuststorm.2 mph30%29.74 "Hg2 mi
8:30 am91 °FHaze.No wind32%29.74 "Hg2 mi
Weather by CustomWeather, © 2017

See weather overviewHow to use our weather pages